Location: Pompeys Pillar
(45.9913°N, 107.9528°W)
Time: 06:43:56
(UTC+00:00)

Envisat - Visible Passes

Search period start: 28 May 2023 00:00
Search period end: 07 June 2023 00:00
Orbit: 763 x 765 km, 98.2° (Epoch: 27 May)

Date Brightness Start Highest point End Pass type
(mag) Time Alt. Az. Time Alt. Az. Time Alt. Az.
28 May 5.7 09:38:17 10° ENE 09:40:09 12° E 09:41:59 10° ESE visible
29 May 4.2 10:37:47 10° NNE 10:42:37 42° E 10:47:24 10° S visible
30 May 5.3 10:01:27 10° NE 10:05:10 20° E 10:08:52 10° SE visible
01 Jun 4.6 10:25:32 10° NNE 10:30:07 33° E 10:34:40 10° SSE visible
02 Jun 5.5 09:49:34 10° NE 09:52:37 16° E 09:55:38 10° SE visible
04 Jun 5.0 10:13:22 10° NE 10:17:36 26° E 10:21:49 10° SSE visible
05 Jun 5.7 09:38:04 10° ENE 09:40:01 12° E 09:41:58 10° ESE visible
06 Jun 4.2 10:37:39 10° NNE 10:42:29 43° E 10:47:18 10° S visible
